Weather History for Aberdeen / Amory, MS

Change the Weather History Date:

Friday, March 29, 2013

  Actual Average (KCBM) Record (KCBM)
Temperature  
Mean Temperature 56 °F -  
Max Temperature 75 °F 68 °F 86 °F (1998)
Min Temperature 37 °F 46 °F 37 °F (2013)
Degree Days  
Heating Degree Days 9    
Growing Degree Days 6 (Base 50)    
Moisture  
Dew Point 40 °F    
Average Humidity 57    
Maximum Humidity 67    
Minimum Humidity 52    
Precipitation  
Precipitation 0.00 in - - ()
Sea Level Pressure  
Sea Level Pressure 30.24 in    
Wind  
Wind Speed 2 mph (SW)    
Max Wind Speed 13 mph    
Max Gust Speed 20 mph    
Visibility 9 miles    
Events      
Averages and records for this station are not official NWS values.
T = Trace of Precipitation, MM = Missing Value Source: NWS Daily Summary

Daily Weather History Graph

Daily Weather History Graph

Search for Another Location

Airport:

Trip Planner

Search our weather history database for the weather conditions in past years. The results will help you decide how hot, cold, wet, or windy it might be!

Date:

Astronomy

Mar. 29, 2013 Rise Set
Actual Time 6:45 AM CDT 7:12 PM CDT
Civil Twilight 6:20 AM CDT 7:37 PM CDT
Nautical Twilight 5:50 AM CDT 8:07 PM CDT
Astronomical Twilight 5:20 AM CDT 8:37 PM CDT
Moon 10:02 PM CDT 8:02 AM CDT
Length of Visible Light 13h 17m
Length of Day
12h 27m
Waning Gibbous, 93% of the Moon is Illuminated
Mar 29
Waning Gibbous
Apr 2
Last Quarter
Apr 10
New
Apr 18
First Quarter
Apr 25
Full

Hourly Weather History & Observations

Time (CDT) Temp. Dew Point Humidity Pressure Visibility Wind Dir Wind Speed Gust Speed Precip Events Conditions
12:15 AM 39.2 °F 28.4 °F 65% 30.30 in 9.0 mi Calm Calm - N/A   Clear
12:35 AM 39.2 °F 28.4 °F 65% 30.30 in 9.0 mi Calm Calm - N/A   Clear
12:55 AM 39.2 °F 28.4 °F 65% 30.30 in 10.0 mi Calm Calm - N/A   Clear
1:15 AM 39.2 °F 28.4 °F 65% 30.30 in 10.0 mi Calm Calm - N/A   Clear
1:35 AM 39.2 °F 26.6 °F 61% 30.30 in 8.0 mi Calm Calm - N/A   Clear
1:55 AM 39.2 °F 26.6 °F 61% 30.29 in 9.0 mi Calm Calm - N/A   Clear
2:15 AM 37.4 °F 26.6 °F 65% 30.28 in 10.0 mi Calm Calm - N/A   Clear
2:35 AM 37.4 °F 26.6 °F 65% 30.28 in 10.0 mi Calm Calm - N/A   Clear
2:55 AM 37.4 °F 24.8 °F 60% 30.27 in 10.0 mi Calm Calm - N/A   Clear
3:15 AM 37.4 °F 26.6 °F 65% 30.27 in 10.0 mi Calm Calm - N/A   Clear
3:35 AM 37.4 °F 24.8 °F 60% 30.27 in 10.0 mi Calm Calm - N/A   Partly Cloudy
3:55 AM 37.4 °F 24.8 °F 60% 30.26 in 8.0 mi Calm Calm - N/A   Partly Cloudy
4:15 AM 37.4 °F 26.6 °F 65% 30.26 in 9.0 mi Calm Calm - N/A   Partly Cloudy
4:35 AM 39.2 °F 26.6 °F 61% 30.26 in 8.0 mi Calm Calm - N/A   Partly Cloudy
4:55 AM 39.2 °F 28.4 °F 65% 30.25 in 10.0 mi Calm Calm - N/A   Partly Cloudy
5:15 AM 41.0 °F 30.2 °F 65% 30.26 in 9.0 mi Calm Calm - N/A   Scattered Clouds
5:35 AM 42.8 °F 28.4 °F 57% 30.26 in 10.0 mi Calm Calm - N/A   Partly Cloudy
5:55 AM 42.8 °F 28.4 °F 57% 30.26 in 10.0 mi Calm Calm - N/A   Clear
6:15 AM 42.8 °F 28.4 °F 57% 30.27 in 10.0 mi Calm Calm - N/A   Clear
6:35 AM 42.8 °F 30.2 °F 61% 30.27 in 10.0 mi Calm Calm - N/A   Clear
6:55 AM 42.8 °F 30.2 °F 61% 30.27 in 9.0 mi Calm Calm - N/A   Clear
7:15 AM 44.6 °F 30.2 °F 57% 30.28 in 9.0 mi Calm Calm - N/A   Clear
7:35 AM 46.4 °F 32.0 °F 57% 30.28 in 10.0 mi Calm Calm - N/A   Clear
7:55 AM 48.2 °F 32.0 °F 54% 30.29 in 9.0 mi Calm Calm - N/A   Partly Cloudy
8:15 AM 48.2 °F 33.8 °F 58% 30.29 in 9.0 mi Calm Calm - N/A   Partly Cloudy
8:35 AM 51.8 °F 35.6 °F 54% 30.30 in 9.0 mi South 5.8 mph - N/A   Clear
8:55 AM 53.6 °F 37.4 °F 54% 30.29 in 8.0 mi South 3.5 mph - N/A   Clear
9:15 AM 55.4 °F 39.2 °F 54% 30.30 in 9.0 mi South 4.6 mph - N/A   Clear
9:35 AM 59.0 °F 42.8 °F 55% 30.30 in 9.0 mi South 5.8 mph - N/A   Partly Cloudy
9:55 AM 62.6 °F 44.6 °F 52% 30.29 in 7.0 mi SSW 5.8 mph - N/A   Clear
10:15 AM 64.4 °F 48.2 °F 56% 30.29 in 9.0 mi SW 4.6 mph - N/A   Clear
10:35 AM 66.2 °F 50.0 °F 56% 30.29 in 9.0 mi SSW 5.8 mph - N/A   Clear
10:55 AM 69.8 °F 51.8 °F 53% 30.28 in 9.0 mi SSW 8.1 mph - N/A   Clear
11:15 AM 69.8 °F 51.8 °F 53% 30.28 in 10.0 mi SSW 9.2 mph - N/A   Clear
11:35 AM 71.6 °F 53.6 °F 53% 30.27 in 9.0 mi SW 5.8 mph - N/A   Partly Cloudy
11:55 AM 73.4 °F 55.4 °F 53% 30.27 in 9.0 mi SW 6.9 mph - N/A   Clear
12:15 PM 73.4 °F 57.2 °F 57% 30.26 in 10.0 mi SSW 9.2 mph - N/A   Partly Cloudy
12:35 PM 73.4 °F 55.4 °F 53% 30.25 in 10.0 mi SW 8.1 mph - N/A   Partly Cloudy
12:55 PM 73.4 °F 57.2 °F 57% 30.24 in 9.0 mi SSW 11.5 mph 16.1 mph N/A   Partly Cloudy
1:15 PM 75.2 °F 57.2 °F 53% 30.24 in 9.0 mi SW 9.2 mph 17.3 mph N/A   Clear
1:35 PM 75.2 °F 57.2 °F 53% 30.23 in 9.0 mi SW 11.5 mph 16.1 mph N/A   Partly Cloudy
1:55 PM 73.4 °F 55.4 °F 53% 30.22 in 10.0 mi WSW 8.1 mph - N/A   Mostly Cloudy
2:15 PM 71.6 °F 55.4 °F 57% 30.21 in 10.0 mi West 10.4 mph 17.3 mph N/A   Scattered Clouds
2:35 PM 68.0 °F 51.8 °F 56% 30.22 in 9.0 mi WNW 12.7 mph - N/A   Mostly Cloudy
2:55 PM 66.2 °F 50.0 °F 56% 30.22 in 9.0 mi WNW 8.1 mph 19.6 mph N/A   Scattered Clouds
3:15 PM 66.2 °F 50.0 °F 56% 30.21 in 9.0 mi West 11.5 mph - N/A   Scattered Clouds
3:35 PM 66.2 °F 50.0 °F 56% 30.21 in 7.0 mi WNW 9.2 mph - N/A   Partly Cloudy
3:55 PM 66.2 °F 48.2 °F 52% 30.21 in 10.0 mi West 9.2 mph - N/A   Partly Cloudy
4:15 PM 64.4 °F 48.2 °F 56% 30.19 in 10.0 mi West 6.9 mph - N/A   Partly Cloudy
4:35 PM 62.6 °F 46.4 °F 55% 30.20 in 10.0 mi WNW 5.8 mph - N/A   Mostly Cloudy
4:55 PM 62.6 °F 44.6 °F 52% 30.20 in 10.0 mi Calm Calm - N/A   Overcast
5:15 PM 60.8 °F 44.6 °F 55% 30.20 in 9.0 mi Calm Calm - N/A   Overcast
5:35 PM 60.8 °F 44.6 °F 55% 30.20 in 9.0 mi Calm Calm - N/A   Overcast
5:55 PM 60.8 °F 44.6 °F 55% 30.20 in 10.0 mi Calm Calm - N/A   Overcast
6:15 PM 60.8 °F 44.6 °F 55% 30.19 in 10.0 mi Calm Calm - N/A   Mostly Cloudy
6:35 PM 60.8 °F 44.6 °F 55% 30.19 in 10.0 mi Calm Calm - N/A   Overcast
6:55 PM 60.8 °F 44.6 °F 55% 30.19 in 10.0 mi Calm Calm - N/A   Overcast
7:15 PM 60.8 °F 44.6 °F 55% 30.18 in 9.0 mi Calm Calm - N/A   Overcast
7:35 PM 59.0 °F 42.8 °F 55% 30.18 in 10.0 mi Calm Calm - N/A   Overcast
7:55 PM 59.0 °F 42.8 °F 55% 30.18 in 10.0 mi Calm Calm - N/A   Overcast
8:15 PM 55.4 °F 39.2 °F 54% 30.18 in 10.0 mi Calm Calm - N/A   Scattered Clouds
8:55 PM 51.8 °F 41.0 °F 67% 30.20 in 10.0 mi Calm Calm - N/A   Clear
9:15 PM 51.8 °F 35.6 °F 54% 30.20 in 10.0 mi Calm Calm - N/A   Clear
9:35 PM 51.8 °F 39.2 °F 62% 30.21 in 9.0 mi Calm Calm - N/A   Clear
9:55 PM 50.0 °F 33.8 °F 54% 30.21 in 9.0 mi Calm Calm - N/A   Clear
10:15 PM 48.2 °F 33.8 °F 58% 30.21 in 9.0 mi Calm Calm - N/A   Mostly Cloudy
10:35 PM 50.0 °F 35.6 °F 58% 30.21 in 9.0 mi Calm Calm - N/A   Mostly Cloudy
10:55 PM 51.8 °F 37.4 °F 58% 30.21 in 9.0 mi Calm Calm - N/A   Overcast
11:15 PM 51.8 °F 37.4 °F 58% 30.20 in 8.0 mi Calm Calm - N/A   Mostly Cloudy
11:35 PM 51.8 °F 39.2 °F 62% 30.20 in 8.0 mi Calm Calm - N/A   Mostly Cloudy
11:55 PM 51.8 °F 35.6 °F 54% 30.20 in 8.0 mi Calm Calm - N/A   Scattered Clouds